Home > Weather > Tirana > Past weeks

Flag for Albania Past Weather in Tirana, Albania — Yesterday and Last 2 Weeks

Now
73 °F

Passing clouds.


Feels Like: 76 °F
Forecast: 71 / 91 °F
Wind: No wind

Location: Tirana Airport

Current Time: Jun 27, 2016 at 12:38:08 AM

Latest Report: Jun 26, 2016 at 11:50 PM


Visibility: N/A

Pressure: 29.92 "Hg

Humidity: 65%

Dew Point: 61 °F

Location of TiranaLocation

Past Weather in Tirana — Graph

°F

Tirana Temperature Yesterday

Maximum temperature yesterday: 93 °F (at 1:20 PM)
Minimum temperature yesterday: 70 °F (at 4:50 AM)
Average temperature yesterday: 81 °F

High & Low Weather Summary for the Past Weeks

 TemperatureHumidityPressure
High100 °F (Jun 23, 4:20 PM)100% (Jun 19, 3:20 AM)30.09 "Hg (Jun 19, 3:20 AM)
Low61 °F (Jun 12, 4:50 AM)20% (Jun 25, 3:20 PM)29.56 "Hg (Jun 13, 5:20 PM)
Average76 °F65%29.90 "Hg
* Reported Jun 11 11:20 PM — Jun 26 11:20 PM, Tirana, Weather by CustomWeather, © 2016

Note: Actual official high and low records may vary slightly from our data, if they occured in-between our weather recording intervals... More about our weather records

Advertising

Tirana Weather History for the Previous 24 Hours

Scroll right to see more
 ConditionsComfort  
Time TempWeatherWind HumidityBarometerVisibility
11:20 PM
Sun, Jun 26
73 °FPassing clouds.5 mph65%29.89 "HgN/A
10:50 PM73 °FPassing clouds.6 mph61%29.89 "HgN/A
10:20 PM77 °FPassing clouds.3 mph51%29.89 "HgN/A
9:50 PM79 °FPassing clouds.5 mph51%29.89 "HgN/A
9:20 PM79 °FPassing clouds.7 mph45%29.89 "HgN/A
8:50 PM77 °FScattered clouds.8 mph54%29.89 "HgN/A
8:20 PM79 °FScattered clouds.8 mph61%29.89 "HgN/A
7:50 PM79 °FScattered clouds.10 mph58%29.89 "HgN/A
7:20 PM81 °FScattered clouds.3 mph54%29.86 "HgN/A
6:50 PM81 °FScattered clouds.8 mph58%29.89 "HgN/A
6:20 PM82 °FScattered clouds.17 mph62%29.89 "HgN/A
5:50 PM90 °FScattered clouds.7 mph52%29.86 "HgN/A
5:20 PM90 °FScattered clouds.6 mph52%29.86 "HgN/A
4:50 PM90 °FPassing clouds.7 mph55%29.83 "HgN/A
4:20 PM91 °FPassing clouds.9 mph59%29.86 "HgN/A
3:50 PM91 °FPassing clouds.8 mph56%29.83 "HgN/A
3:20 PM90 °FPassing clouds.9 mph55%29.83 "HgN/A
2:50 PM91 °FPassing clouds.9 mph49%29.83 "HgN/A
2:20 PM93 °FPassing clouds.6 mph44%29.83 "HgN/A
1:50 PM90 °FPassing clouds.7 mph49%29.83 "HgN/A
1:20 PM93 °FExtremely hot.N/A47%29.83 "HgN/A
12:50 PM88 °FPassing clouds.3 mph49%29.86 "HgN/A
12:20 PM90 °FPassing clouds.No wind46%29.86 "HgN/A
11:50 AM88 °FPassing clouds.No wind46%29.86 "HgN/A
11:20 AM90 °FSunny.3 mph43%29.86 "Hg10 mi
10:50 AM88 °FSunny.No wind46%29.86 "Hg10 mi
10:20 AM88 °FSunny.2 mph52%29.86 "Hg10 mi
9:50 AM84 °FSunny.2 mph55%29.86 "Hg10 mi
9:20 AM82 °FSunny.2 mph55%29.86 "Hg10 mi
8:50 AM79 °FSunny.2 mph58%29.86 "Hg10 mi
8:20 AM79 °FSunny.2 mph61%29.86 "Hg10 mi
7:50 AM77 °FSunny.2 mph65%29.86 "Hg10 mi
7:20 AM75 °FSunny.5 mph69%29.86 "Hg10 mi
6:50 AM73 °FSunny.2 mph78%29.86 "Hg10 mi
6:20 AM72 °FPassing clouds.3 mph83%29.86 "HgN/A
5:50 AM70 °FPassing clouds.5 mph88%29.86 "HgN/A
5:20 AM70 °FClear.2 mph83%29.86 "Hg10 mi
4:50 AM70 °FClear.No wind83%29.86 "Hg10 mi
4:20 AM72 °FClear.2 mph83%29.86 "Hg10 mi
3:50 AM73 °FClear.2 mph74%29.86 "Hg10 mi
3:20 AM73 °FPassing clouds.5 mph74%29.83 "HgN/A
2:50 AM73 °FPassing clouds.6 mph74%29.83 "HgN/A
2:20 AM75 °FPassing clouds.3 mph69%29.83 "HgN/A
1:50 AM75 °FPassing clouds.9 mph69%29.83 "HgN/A
1:20 AM75 °FPassing clouds.6 mph74%29.83 "HgN/A
12:50 AM77 °FPassing clouds.10 mph69%29.83 "HgN/A
12:20 AM75 °FPassing clouds.8 mph74%29.83 "HgN/A
Weather by CustomWeather, © 2016

See weather overviewHow to use our weather pages